Regional Weather Roundup
Issued by NWS Northern Indiana

Home | Current Version | Previous Version | Graphics & Text | Print | Product List | Glossary On
Versions: 1 2 3 4 5 6 7 8 9 10 11 12 13 14 15 16 17 18 19 20 21 22 23 24 25 26 27 28 29 30 31 32 33 34 35 36 37 38 39 40 41 42 43 44 45 46 47 48 49 50
000
ASUS43 KIWX 221510
RWRIWX

KIWX WEATHER ROUNDUP
NATIONAL WEATHER SERVICE NORTHERN INDIANA
1100 AM EDT TUE AUG 22 2017

NOTE: "FAIR" INDICATES FEW OR NO CLOUDS BELOW 12,000 FEET WITH NO
SIGNIFICANT WEATHER AND/OR OBSTRUCTIONS TO VISIBILITY.

* THESE STATIONS ARE NOT UNDER NWS QUALITY CONTROL. THEY ALSO MAY NOT
  REPORT WEATHER SUCH AS PRECIPITATION OR FOG.

INZ001>027-221600-
NORTHERN INDIANA

CITY           SKY/WX    TMP DP  RH WIND       PRES   REMARKS
GARY*          CLOUDY    73  68  83 W12G23    29.87F
VALPARAISO     CLOUDY    74  69  85 SW14      29.88F
MICHIGAN CITY* CLOUDY    72  70  94 W10       29.87S
LAPORTE*       CLOUDY    72  68  88 W8        29.88F
KNOX*          CLOUDY    70  68  94 W8        29.88F
SOUTH BEND     CLOUDY    71  70  96 W13       29.87S
GOSHEN         CLOUDY    72  66  81 SW13      29.87S
MONTICELLO*    CLOUDY    69  68  95 S8        29.90F
LOGANSPORT*    CLOUDY    68  68 100 S10       29.92F
ROCHESTER*     CLOUDY   N/A N/A N/A W8        29.90F
WARSAW*        CLOUDY    68  66  94 W10       29.89F
AUBURN*        DRIZZLE   70  66  88 SW7       29.88F
FORT WAYNE     LGT RAIN  71  67  87 W10       29.90F
HUNTINGTON*    CLOUDY    70  69  96 W8        29.92S
PERU/GRISSOM   DRIZZLE   70  70 100 W9        29.92S
MARION*        CLOUDY    70  66  88 W6        29.94R

$$
INZ028>050-221600-
CENTRAL INDIANA

CITY           SKY/WX    TMP DP  RH WIND       PRES   REMARKS
LAFAYETTE      LGT RAIN  70  70 100 SW3       29.91S
KOKOMO*        LGT RAIN  70  68  93 W5        29.94R
MUNCIE*        CLOUDY    73  68  84 SW7       29.93F
INDIANAPOLIS   CLOUDY    73  69  87 S7        29.93F

$$
MIZ043>046-050>051-056>058-064>065-071>073-077>080-221600-
SOUTHWEST LOWER MICHIGAN

CITY           SKY/WX    TMP DP  RH WIND       PRES   REMARKS
BATTLE CREEK   CLOUDY    72  69  90 W9        29.84R
BENTON HARBOR  CLOUDY    74  68  81 W17       29.84F
COLDWATER*     CLOUDY    71  70  98 SW12G20   29.85S
HILLSDALE*     CLOUDY    70  64  83 W13G24    29.85S
HOLLAND        CLOUDY    73  65  75 W17G26    29.83R
GRAND RAPIDS   CLOUDY    74  66  76 W21       29.80R
KALAMAZOO      CLOUDY    74  67  78 W14       29.83S
STURGIS*       CLOUDY    71  68  92 SW10G16   29.85S
THREE RIVERS*  PTSUNNY   72  68  88 W9        29.85F

$$
OHZ001>008-015>018-024>025-221600-
NORTHWEST OHIO

CITY           SKY/WX    TMP DP  RH WIND       PRES   REMARKS
DEFIANCE       LGT RAIN  71  68  90 W6        29.88S
FINDLAY        LGT RAIN  75  68  78 SW13G21   29.88S
TOLEDO EXPRESS CLOUDY    73  70  90 SW15      29.86R
TOLEDO METCALF CLOUDY    75  70  84 SW13      29.86R
LIMA           LGT RAIN  75  70  84 SW13      29.90F

$$
AND FOR LAKE MICHIGAN COASTAL AND OPEN LAKE BUOY OBSERVATIONS

STATION/POSITION TEMP    WIND        PRES    VSBY  WAVE
                 AIR SEA DIR/SP/G                  HT/PER
                 (F)     (DEG/KT/KT) (MB)    (MI)  (FT/S)
CALUMET HARBOR    72     250/  5/ 13 1010.8F
MICHIGAN CITY     71     220/ 18/ 20   N/A
BURNS HARBOR      72     240/ 14/ 17 1011.9F
SAINT JOSEPH      74     240/ 16/ 20 1011.2
SOUTH LAKE BUOY   71 71  290/ 19/ 21 1009.7          3/ 5
4 MI NW BRIDGMAN  72 73  260/ 17/ 21 1010.6          5/ 5
MICHIGAN CITY     72 74  250/ 16/ 21   N/A           3/ 4

$$
&&




USA.gov is the U.S. government's official web portal to all federal, state and local government web resources and services.